COSMOS 1275 DEB, 13019

Orbit data source: Space-Track

COSMOS 1275 DEB, 13019 is space debris in LEO originally from a launch on Thu, 04 Jun 1981 UTC launched from the Plesetsk Missile And Space Complex (PKMTR). Debris objects in space refer to the collection of defunct objects orbiting the Earth. Examples of debris include non-operational satellites, rocket bodies, and fragments generated from explosions, collisions, or faulty payload assembly.

Loading next visibility...
Identifier
13019, 1981-053ER
Orbit
LEO
Country
Flag of CISCIS
Related business
Manufacturer
Unknown
Mission
Spacecraft
Bus & Motor
Unknown
Mass
Unknown
Launch date (UTC)
1981-06-04 (45 years ago)
Launch vehicle
Unknown
Launch site
Plesetsk Missile And Space Complex (PKMTR)
Object type
Payload
Rocket body
Debris
Shape & HBR
Unknown shape, 0.1 m
Radar Cross Section
Small (<0.1 m²)

Expand to show TLE details & history
Last TLE update: 11 hours ago

TLE from 11 hours ago
0 COSMOS 1275 DEB
1 13019U 81053ER  26119.45124340  .00001886  00000-0  11986-2 0  9993
2 13019  82.9378 126.4387 0072600  88.3413  67.2934 14.01991762239562
Epoch: 2026-04-29T10:49Z
TLE epoch observation values (Epoch: 2026-04-29T10:49:47.429Z)
Latitude
23.42621°
Longitude
-76.4817°
Altitude
869.732 km
Speed
7.43 km/s
True Right ascension
20h 13m 30s
True Declination
23° 18' 11"
Sunlit
Object was in daylight at epoch
Visualization orbit readout
Latitude
Unknown
Longitude
Unknown
Altitude
Unknown
Speed
Unknown
Apparent Right ascension
Unknown
Apparent Declination
Unknown
Sunlit
N/A
Visualization observer readout
Local Sidereal Time
05:43:51
Azimuth
Unknown
Elevation
Unknown
Doppler factor
Unknown
Orbital elements
Apogee altitude
936.741 km
Perigee altitude
831.294 km
Semi-major axis
7,262.155 km
Eccentricity
0.00726
Inclination
82.9378°
RAAN
126.4387°
Arg. of periapsis
88.3413°
True anomaly
68.06353°
Mean anomaly
67.2934°
Eccentric anomaly
67.6782°
Mean motion
3.50707 °/min
Orbital period
102.65 mins
BSTAR
0.0011986
Loading maneuver chart data...
Computing Atmospheric mass density...
Loading historical data...
Loading historical data...
Loading historical data...
Loading historical data...
Loading historical data...
Loading historical data...
Loading historical data...

Documentation

Showing up to 5 results
|